Location: Bennemühlen
(52.5740°N, 9.7135°E)
Time: 17:16:40
(UTC+00:00)

Tiros 1 despin weight - Pass Details

Date: 23 February 2026
Orbit: 556 x 593 km, 48.2° (Epoch: 11 March)

Event Time Altitude Azimuth Distance (km) Brightness Sun altitude
Rises 17:20:14 0° 274° (W) 2,738 ? -5.5°
Reaches altitude 10° 17:22:49 10° 260° (W) 1,839 ? -5.9°
Maximum altitude 17:26:07 23° 208° (SSW) 1,212 ? -6.4°
Drops below altitude 10° 17:29:25 10° 155° (SSE) 1,833 ? -6.9°
Sets 17:32:00 0° 141° (SE) 2,728 ? -7.3°
